SL-14 DEB, 45288

Orbit data source: Space-Track

SL-14 DEB, 45288 is space debris in LEO originally from a launch on Thu, 15 Aug 1991 UTC launched from the Plesetsk Missile And Space Complex (PKMTR). Debris objects in space refer to the collection of defunct objects orbiting the Earth. Examples of debris include non-operational satellites, rocket bodies, and fragments generated from explosions, collisions, or faulty payload assembly.

Loading next visibility...
Identifier
45288, 1991-056AA
Orbit
LEO
Country
Flag of CISCIS
Related business
Manufacturer
Unknown
Mission
Spacecraft
Bus & Motor
Unknown
Mass
Unknown
Launch date (UTC)
1991-08-15 (34 years ago)
Launch vehicle
Unknown
Launch site
Plesetsk Missile And Space Complex (PKMTR)
Object type
Payload
Rocket body
Debris
Shape & HBR
Unknown shape, 0.1 m
Radar Cross Section
Small (<0.1 m²)

Expand to show TLE details & history
Last TLE update: 9 hours ago

TLE from 9 hours ago
0 SL-14 DEB
1 45288U 91056AA  25291.31186748 -.00003121  00000-0 -10841-1 0  9999
2 45288  82.6299  50.4185 0234269  93.8386 268.9537 12.88669175265175
Epoch: 2025-10-18T07:29Z
TLE epoch observation values (Epoch: 2025-10-18T07:29:05.350Z)
Latitude
-0.00006°
Longitude
-88.8985°
Altitude
1,317.082 km
Speed
7.195 km/s
True Right ascension
03h 21m 40s
True Declination
0° 00' 00"
Sunlit
Object was in full shadow at epoch
Visualization orbit readout
Latitude
Unknown
Longitude
Unknown
Altitude
Unknown
Speed
Unknown
Apparent Right ascension
Unknown
Apparent Declination
Unknown
Sunlit
N/A
Visualization observer readout
Local Sidereal Time
11:22:11
Azimuth
Unknown
Elevation
Unknown
Doppler factor
Unknown
Orbital elements
Apogee altitude
1,484.06 km
Perigee altitude
1,124.119 km
Semi-major axis
7,682.226 km
Eccentricity
0.02343
Inclination
82.6299°
RAAN
50.4185°
Arg. of periapsis
93.8386°
True anomaly
266.27204°
Mean anomaly
268.9537°
Eccentric anomaly
267.6126°
Mean motion
3.22339 °/min
Orbital period
111.68 mins
BSTAR
-0.010841
Loading maneuver chart data...
Computing Atmospheric mass density...
Loading historical data...
Loading historical data...
Loading historical data...
Loading historical data...
Loading historical data...
Loading historical data...
Loading historical data...

Documentation

Showing up to 5 results
|